Weather History for Piney Island, NC

Change the Weather History Date:

Wednesday, August 27, 2014

  Actual Average (KMRH) Record (KMRH)
Temperature  
Mean Temperature 80 °F -  
Max Temperature 86 °F 86 °F 93 °F (1954)
Min Temperature 75 °F 69 °F 60 °F (1984)
Cooling Degree Days 16    
Growing Degree Days 30 (Base 50)    
Moisture  
Dew Point 73 °F    
Average Humidity 79    
Maximum Humidity 91    
Minimum Humidity 67    
Precipitation  
Precipitation 0.00 in - - ()
Sea Level Pressure  
Sea Level Pressure 29.97 in    
Wind  
Wind Speed 15 mph (NNE)    
Max Wind Speed 20 mph    
Max Gust Speed 28 mph    
Visibility 10 miles    
Events      
Averages and records for this station are not official NWS values.
T = Trace of Precipitation, MM = Missing Value Source: NWS Daily Summary

Daily Weather History Graph

Daily Weather History Graph

Search for Another Location

Airport:

Trip Planner

Search our weather history database for the weather conditions in past years. The results will help you decide how hot, cold, wet, or windy it might be!

Date:

Astronomy

Aug. 27, 2014 Rise Set
Actual Time 6:34 AM EDT 7:39 PM EDT
Civil Twilight 6:08 AM EDT 8:05 PM EDT
Nautical Twilight 5:37 AM EDT 8:36 PM EDT
Astronomical Twilight 5:05 AM EDT 9:08 PM EDT
Moon 8:22 AM EDT (8/27) 8:37 PM EDT (8/27)
Length of Visible Light 13h 56m
Length of Day
13h 04m
Waxing Crescent, 4% of the Moon is Illuminated
Aug 27
Waxing Crescent
Sep 2
First Quarter
Sep 8
Full
Sep 15
Last Quarter
Sep 24
New

Hourly Weather History & Observations

Time (EDT) Temp. Heat Index Dew Point Humidity Pressure Visibility Wind Dir Wind Speed Gust Speed Precip Events Conditions
12:56 AM 77.0 °F - 72.0 °F 84% 30.02 in 10.0 mi NNE 15.0 mph - N/A   Clear
1:56 AM 77.0 °F - 71.1 °F 82% 30.00 in 10.0 mi NNE 16.1 mph - N/A   Mostly Cloudy
2:56 AM 75.9 °F - 72.0 °F 87% 29.98 in 10.0 mi North 15.0 mph - N/A   Clear
3:26 AM 75.9 °F - 73.0 °F 91% 29.96 in 10.0 mi North 15.0 mph - N/A   Mostly Cloudy
3:44 AM 75.9 °F - 73.0 °F 91% 29.95 in 10.0 mi North 13.8 mph 21.9 mph N/A   Scattered Clouds
3:56 AM 75.9 °F - 73.0 °F 91% 29.97 in 10.0 mi NNE 12.7 mph - N/A   Partly Cloudy
4:56 AM 77.0 °F - 73.0 °F 88% 29.97 in 10.0 mi NNE 12.7 mph - N/A   Clear
5:56 AM 77.0 °F - 73.0 °F 88% 29.97 in 10.0 mi NNE 17.3 mph 23.0 mph N/A   Clear
6:56 AM 77.0 °F - 73.0 °F 88% 29.99 in 10.0 mi North 12.7 mph - N/A   Clear
7:56 AM 78.1 °F - 73.9 °F 87% 29.99 in 10.0 mi North 16.1 mph 21.9 mph N/A   Clear
8:56 AM 79.0 °F - 73.9 °F 84% 29.99 in 10.0 mi North 17.3 mph 26.5 mph N/A   Scattered Clouds
9:03 AM 79.0 °F - 73.9 °F 84% 29.98 in 10.0 mi North 18.4 mph 27.6 mph N/A   Mostly Cloudy
9:56 AM 80.1 °F 84.5 °F 73.9 °F 81% 30.00 in 10.0 mi North 17.3 mph 25.3 mph N/A   Overcast
10:45 AM 81.0 °F 86.2 °F 73.9 °F 79% 29.99 in 10.0 mi North 19.6 mph 25.3 mph N/A   Mostly Cloudy
10:56 AM 81.0 °F 86.2 °F 73.9 °F 79% 30.00 in 10.0 mi NNE 16.1 mph 26.5 mph N/A   Scattered Clouds
11:56 AM 82.9 °F 89.4 °F 73.9 °F 74% 29.99 in 10.0 mi North 16.1 mph - N/A   Scattered Clouds
12:24 PM 82.9 °F 89.4 °F 73.9 °F 74% 29.98 in 10.0 mi North 17.3 mph - N/A   Mostly Cloudy
12:35 PM 82.9 °F 89.4 °F 73.9 °F 74% 29.97 in 10.0 mi North 15.0 mph 21.9 mph N/A   Mostly Cloudy
12:56 PM 84.0 °F 91.2 °F 73.9 °F 72% 29.98 in 10.0 mi NNE 16.1 mph 23.0 mph N/A   Partly Cloudy
1:56 PM 84.9 °F 91.4 °F 73.0 °F 67% 29.96 in 10.0 mi North 15.0 mph - N/A   Partly Cloudy
2:56 PM 86.0 °F 93.8 °F 73.9 °F 67% 29.95 in 10.0 mi North 16.1 mph - N/A   Clear
3:56 PM 84.9 °F 91.4 °F 73.0 °F 67% 29.94 in 10.0 mi NNE 15.0 mph 21.9 mph N/A   Clear
4:56 PM 84.9 °F 91.4 °F 73.0 °F 67% 29.93 in 10.0 mi NNE 12.7 mph - N/A   Clear
5:56 PM 84.0 °F 90.2 °F 73.0 °F 69% 29.94 in 10.0 mi NNE 13.8 mph - N/A   Clear
6:56 PM 82.9 °F 87.5 °F 71.1 °F 67% 29.94 in 10.0 mi NNE 12.7 mph - N/A   Clear
7:56 PM 81.0 °F 84.9 °F 71.1 °F 72% 29.94 in 10.0 mi NNE 10.4 mph - N/A   Clear
8:56 PM 80.1 °F 84.2 °F 73.0 °F 79% 29.95 in 10.0 mi NNE 10.4 mph - N/A   Clear
9:56 PM 79.0 °F - 73.0 °F 82% 29.95 in 10.0 mi North 6.9 mph - N/A   Clear
10:56 PM 77.0 °F - 72.0 °F 84% 29.96 in 10.0 mi North 4.6 mph - N/A   Clear
11:56 PM 77.0 °F - 72.0 °F 84% 29.96 in 10.0 mi NW 4.6 mph - N/A   Clear